GW5223 Weather Reports


time (UTC)temp
C
wind
direction
speed
KPH
gust
KPH
rain 1hr
cm
rain 24hr
cm
rain mn
cm
humidity
%
barometer
mb
20260505130304 20 184 4.8 8.0 0.00 0.00 0.00 61 1011.5
20260505124304 19 174 1.6 14.5 0.00 0.00 0.00 65 1011.4
20260505123804 18 182 3.2 9.7 0.00 0.00 0.00 67 1011.4
20260505123304 18 202 4.8 11.3 0.00 0.00 0.00 68 1011.4
20260505122804 17 187 3.2 9.7 0.00 0.00 0.00 72 1011.4
20260505122306 17 173 3.2 9.7 0.00 0.00 0.00 74 1011.3
20260505121804 17 177 0.0 4.8 0.00 0.00 0.00 75 1011.3
20260505121304 16 184 3.2 16.1 0.00 0.00 0.00 79 1011.4
20260505120804 16 163 1.6 4.8 0.00 0.00 0.00 81 1011.4
20260505120305 15 177 1.6 4.8 0.00 0.00 0.00 83 1011.4
20260505115804 15 170 0.0 0.0 0.00 0.00 0.00 84 1011.3
20260505115306 14 170 0.0 3.2 0.00 0.00 0.00 85 1011.4
20260505114304 13 187 1.6 3.2 0.00 0.00 0.00 86 1011.3
20260505113804 13 192 0.0 0.0 0.00 0.00 0.00 86 1011.3
20260505112305 12 192 0.0 0.0 0.00 0.00 0.00 87 1011.3
20260505111804 12 192 0.0 0.0 0.00 0.00 0.00 86 1011.3
20260505111304 12 192 0.0 0.0 0.00 0.00 0.00 87 1011.2
20260505110304 12 192 0.0 0.0 0.00 0.00 0.00 86 1011.2
20260505101804 12 192 0.0 0.0 0.00 0.00 0.00 86 1010.9
20260505101304 11 192 0.0 0.0 0.00 0.00 0.00 85 1010.8
20260505100804 11 192 0.0 0.0 0.00 0.00 0.00 84 1010.6
20260505095804 12 192 0.0 0.0 0.00 0.00 0.00 84 1010.5
20260505095305 12 192 0.0 0.0 0.00 0.00 0.00 84 1010.5
20260505094804 12 192 0.0 0.0 0.00 0.00 0.00 84 1010.5
20260505094304 12 192 0.0 0.0 0.00 0.00 0.00 84 1010.5
20260505093804 12 192 0.0 0.0 0.00 0.00 0.00 83 1010.5
20260505093304 12 192 0.0 0.0 0.00 0.00 0.00 83 1010.5
20260505092804 12 192 0.0 0.0 0.00 0.00 0.00 83 1010.5
20260505091805 12 192 0.0 0.0 0.00 0.00 0.00 82 1010.4
20260505090804 12 192 0.0 0.0 0.00 0.00 0.00 81 1010.4
20260505090304 13 192 0.0 0.0 0.00 0.00 0.00 81 1010.3
20260505085305 13 192 0.0 0.0 0.00 0.00 0.00 81 1010.3
20260505084304 13 192 0.0 0.0 0.00 0.00 0.00 81 1010.4
20260505083806 13 192 0.0 0.0 0.00 0.00 0.00 81 1010.4
20260505083304 13 192 0.0 0.0 0.00 0.00 0.00 81 1010.4
20260505081804 13 192 0.0 1.6 0.00 0.00 0.00 82 1010.4
20260505080804 13 192 0.0 1.6 0.00 0.00 0.00 83 1010.5
20260505080304 13 193 0.0 0.0 0.00 0.00 0.00 83 1010.5
20260505075805 12 193 0.0 3.2 0.00 0.00 0.00 83 1010.5
20260505075305 12 194 0.0 1.6 0.00 0.00 0.00 83 1010.5
20260505074805 12 194 0.0 3.2 0.00 0.00 0.00 83 1010.4
20260505074303 12 196 0.0 1.6 0.00 0.00 0.00 83 1010.3
20260505073804 12 196 0.0 1.6 0.00 0.00 0.00 82 1010.2
20260505073304 12 194 0.0 1.6 0.00 0.00 0.00 82 1010.2
20260505072804 12 196 0.0 0.0 0.00 0.00 0.00 82 1010.2
20260505072305 12 196 0.0 0.0 0.00 0.00 0.00 81 1010.3
20260505071804 12 196 0.0 0.0 0.00 0.00 0.00 81 1010.2
20260505071304 12 196 0.0 1.6 0.00 0.00 0.00 81 1010.2
20260505070804 12 196 0.0 0.0 0.00 0.00 0.00 81 1010.2
20260505070304 12 196 0.0 1.6 0.00 0.00 0.00 81 1010.2
20260505065805 12 180 0.0 1.6 0.00 0.00 0.00 81 1010.2
20260505064805 12 180 1.6 4.8 0.00 0.00 0.00 81 1010.0
20260505064304 12 184 1.6 3.2 0.00 0.00 0.00 80 1010.1
20260505063804 12 164 1.6 4.8 0.00 0.00 0.00 79 1010.0
20260505063304 12 158 0.0 1.6 0.00 0.00 0.00 79 1010.1
20260505062804 12 157 0.0 1.6 0.00 0.00 0.00 79 1010.1
20260505062304 13 157 0.0 1.6 0.00 0.00 0.00 79 1010.2
20260505061805 13 157 0.0 0.0 0.00 0.00 0.00 78 1010.2
20260505061304 13 157 0.0 4.8 0.00 0.00 0.00 78 1010.1
20260505060304 13 161 0.0 1.6 0.00 0.00 0.00 77 1010.2
20260505054305 13 165 0.0 4.8 0.00 0.00 0.00 76 1010.2
20260505053804 13 171 0.0 4.8 0.00 0.00 0.00 76 1010.2
20260505052805 14 184 1.6 3.2 0.00 0.00 0.00 75 1010.3
20260505052304 14 181 0.0 3.2 0.00 0.00 0.00 74 1010.3
20260505051804 14 166 0.0 4.8 0.00 0.00 0.00 74 1010.3
20260505051304 14 180 1.6 4.8 0.00 0.00 0.00 74 1010.4
20260505050804 14 196 1.6 4.8 0.00 0.00 0.00 73 1010.4
20260505050304 15 180 3.2 11.3 0.00 0.00 0.00 73 1010.4
20260505040902 15 179 3.2 11.3 0.00 0.00 0.00 69 1010.4
20260505040305 15 170 4.8 11.3 0.00 0.00 0.00 69 1010.3
20260505035804 15 190 3.2 12.9 0.00 0.00 0.00 68 1010.4
20260505035304 15 174 3.2 4.8 0.00 0.00 0.00 68 1010.4
20260505034304 15 205 4.8 12.9 0.00 0.00 0.00 67 1010.4
20260505033805 15 182 1.6 8.0 0.00 0.00 0.00 66 1010.4
20260505033306 15 179 3.2 9.7 0.00 0.00 0.00 66 1010.4
20260505032804 15 201 1.6 12.9 0.00 0.00 0.00 65 1010.3
20260505032304 15 185 3.2 9.7 0.00 0.00 0.00 65 1010.5
20260505031805 15 178 4.8 11.3 0.00 0.00 0.00 65 1010.6
20260505031305 16 173 3.2 11.3 0.00 0.00 0.00 64 1010.6
20260505030305 16 177 3.2 8.0 0.00 0.00 0.00 63 1010.7
20260505025804 16 169 3.2 8.0 0.00 0.00 0.00 63 1010.7
20260505025305 16 175 3.2 11.3 0.00 0.00 0.00 62 1010.7
20260505024804 16 180 3.2 8.0 0.00 0.00 0.00 62 1010.7
20260505024304 16 188 3.2 4.8 0.00 0.00 0.00 61 1010.8
20260505022805 16 174 1.6 9.7 0.00 0.00 0.00 59 1010.8
20260505022304 16 171 3.2 11.3 0.00 0.00 0.00 59 1010.7
20260505021804 16 172 4.8 12.9 0.00 0.00 0.00 58 1010.8
20260505020804 17 171 3.2 9.7 0.00 0.00 0.00 57 1010.8
20260505020304 17 223 3.2 9.7 0.00 0.00 0.00 56 1010.8
20260505015804 17 186 1.6 9.7 0.00 0.00 0.00 54 1010.8
20260505015305 17 190 1.6 8.0 0.00 0.00 0.00 53 1010.7
20260505014805 17 166 3.2 8.0 0.00 0.00 0.00 53 1010.7
20260505014305 17 180 1.6 4.8 0.00 0.00 0.00 52 1010.7
20260505013805 17 173 4.8 9.7 0.00 0.00 0.00 52 1010.7
20260505013304 17 180 4.8 9.7 0.00 0.00 0.00 52 1010.7
20260505012805 16 183 1.6 4.8 0.00 0.00 0.00 53 1010.6
20260505012304 16 185 3.2 8.0 0.00 0.00 0.00 53 1010.6
20260505011804 16 195 1.6 4.8 0.00 0.00 0.00 53 1010.4
20260505011304 16 175 1.6 4.8 0.00 0.00 0.00 52 1010.4
20260505010804 16 180 0.0 3.2 0.00 0.00 0.00 51 1010.3
20260505010304 17 163 0.0 3.2 0.00 0.00 0.00 51 1010.3
20260505005804 17 206 0.0 1.6 0.00 0.00 0.00 50 1010.2
20260505005304 17 207 1.6 4.8 0.00 0.00 0.00 49 1010.1
20260505004804 17 220 1.6 3.2 0.00 0.00 0.00 49 1010.1
20260505004304 17 166 0.0 3.2 0.00 0.00 0.00 48 1010.1
20260505002804 18 144 0.0 1.6 0.00 0.00 0.00 46 1009.9
20260505002304 18 143 1.6 4.8 0.00 0.00 0.00 46 1009.9
20260505001804 18 141 1.6 4.8 0.00 0.00 0.00 44 1009.9
20260505000804 18 160 0.0 1.6 0.00 0.00 0.00 44 1009.8
20260505000305 19 161 0.0 1.6 0.00 0.00 0.00 42 1009.7
20260504235305 20 187 0.0 4.8 0.00 0.00 0.00 42 1009.7
20260504234806 20 161 0.0 4.8 0.00 0.00 0.00 41 1009.6
20260504234304 20 194 1.6 9.7 0.00 0.00 0.00 41 1009.5
20260504233304 20 184 4.8 14.5 0.00 0.00 0.00 39 1009.4
20260504232805 20 172 3.2 11.3 0.00 0.00 0.00 39 1009.5
20260504232304 21 183 3.2 14.5 0.00 0.00 0.00 39 1009.4
20260504231804 21 215 1.6 9.7 0.00 0.00 0.00 38 1009.4
20260504231305 21 197 3.2 9.7 0.00 0.00 0.00 37 1009.3
20260504230803 21 215 3.2 20.9 0.00 0.00 0.00 36 1009.3
20260504230305 21 236 6.4 19.3 0.00 0.00 0.00 37 1009.3
20260504225804 21 173 1.6 14.5 0.00 0.00 0.00 37 1009.2
20260504225304 22 203 4.8 11.3 0.00 0.00 0.00 36 1009.3
20260504224804 22 269 0.0 4.8 0.00 0.00 0.00 36 1009.2
20260504224304 22 281 3.2 8.0 0.00 0.00 0.00 36 1009.3
20260504223805 22 319 1.6 4.8 0.00 0.00 0.00 37 1009.3
20260504223305 22 289 0.0 12.9 0.00 0.00 0.00 36 1009.3
20260504222804 22 209 1.6 19.3 0.00 0.00 0.00 36 1009.3
20260504222305 22 170 4.8 19.3 0.00 0.00 0.00 35 1009.3
20260504221804 22 179 1.6 8.0 0.00 0.00 0.00 35 1009.3
20260504221304 22 228 1.6 11.3 0.00 0.00 0.00 34 1009.3
20260504220804 22 188 1.6 11.3 0.00 0.00 0.00 34 1009.3
20260504220304 23 176 4.8 11.3 0.00 0.00 0.00 34 1009.3
20260504215803 23 283 3.2 14.5 0.00 0.00 0.00 34 1009.4
20260504215305 23 174 3.2 19.3 0.00 0.00 0.00 32 1009.5
20260504214804 23 189 3.2 11.3 0.00 0.00 0.00 32 1009.5
20260504214304 23 206 3.2 16.1 0.00 0.00 0.00 32 1009.6
20260504213803 24 215 3.2 19.3 0.00 0.00 0.00 31 1009.5
20260504213304 24 242 1.6 11.3 0.00 0.00 0.00 33 1009.5
20260504212804 24 206 1.6 4.8 0.00 0.00 0.00 32 1009.5
20260504212304 24 214 3.2 14.5 0.00 0.00 0.00 32 1009.6
20260504211805 24 173 3.2 9.7 0.00 0.00 0.00 30 1009.6
20260504211304 24 257 1.6 11.3 0.00 0.00 0.00 31 1009.6
20260504210806 24 303 3.2 14.5 0.00 0.00 0.00 31 1009.6
20260504205804 24 239 3.2 19.3 0.00 0.00 0.00 33 1009.7
20260504205304 24 211 3.2 12.9 0.00 0.00 0.00 32 1009.6
20260504204804 24 300 1.6 9.7 0.00 0.00 0.00 32 1009.7
20260504204305 24 326 1.6 9.7 0.00 0.00 0.00 32 1009.6
20260504203806 24 208 8.0 20.9 0.00 0.00 0.00 31 1009.6
20260504203306 24 253 1.6 8.0 0.00 0.00 0.00 33 1009.6
20260504202804 24 188 6.4 19.3 0.00 0.00 0.00 32 1009.6
20260504202305 24 201 4.8 19.3 0.00 0.00 0.00 33 1009.7
20260504201805 24 179 6.4 14.5 0.00 0.00 0.00 33 1009.6
20260504201305 24 247 3.2 11.3 0.00 0.00 0.00 31 1009.7
20260504195804 24 217 3.2 8.0 0.00 0.00 0.00 35 1009.8
20260504195305 24 182 3.2 9.7 0.00 0.00 0.00 34 1009.8
20260504194804 24 272 4.8 12.9 0.00 0.00 0.00 34 1009.9
20260504193804 24 222 1.6 8.0 0.00 0.00 0.00 32 1009.9
20260504193304 24 205 1.6 11.3 0.00 0.00 0.00 33 1010.0
20260504192304 23 305 3.2 9.7 0.00 0.00 0.00 34 1010.1
20260504191804 23 185 4.8 14.5 0.00 0.00 0.00 33 1010.3
20260504190805 23 185 4.8 16.1 0.00 0.00 0.00 34 1010.4
20260504190304 23 176 8.0 14.5 0.00 0.00 0.00 34 1010.4
20260504184804 23 239 3.2 19.3 0.00 0.00 0.00 34 1010.6
20260504184305 23 183 6.4 14.5 0.00 0.00 0.00 34 1010.7
20260504183804 23 234 3.2 11.3 0.00 0.00 0.00 34 1010.8
20260504183304 23 253 4.8 12.9 0.00 0.00 0.00 31 1010.8
20260504182804 23 215 4.8 19.3 0.00 0.00 0.00 34 1011.0
20260504181804 23 170 3.2 9.7 0.00 0.00 0.00 33 1011.1
20260504181304 23 197 3.2 9.7 0.00 0.00 0.00 34 1011.2
20260504180805 23 155 3.2 8.0 0.00 0.00 0.00 33 1011.1
20260504180304 23 180 3.2 8.0 0.00 0.00 0.00 34 1011.3
20260504175805 23 223 3.2 12.9 0.00 0.00 0.00 33 1011.4
20260504175304 23 221 1.6 14.5 0.00 0.00 0.00 36 1011.4
20260504173804 22 189 3.2 12.9 0.00 0.00 0.00 39 1011.6
20260504173304 22 283 3.2 4.8 0.00 0.00 0.00 35 1011.7
20260504172804 22 213 3.2 12.9 0.00 0.00 0.00 38 1011.7
20260504172304 22 293 1.6 8.0 0.00 0.00 0.00 38 1011.7
20260504171805 22 238 3.2 9.7 0.00 0.00 0.00 36 1011.8
20260504171304 22 233 3.2 4.8 0.00 0.00 0.00 36 1011.9
20260504170805 22 254 3.2 9.7 0.00 0.00 0.00 37 1012.0
20260504170305 22 273 3.2 9.7 0.00 0.00 0.00 38 1012.0
20260504160304 21 311 1.6 9.7 0.00 0.00 0.00 41 1013.0
20260504150804 20 211 1.6 9.7 0.00 0.00 0.00 46 1013.5
20260504150304 20 294 4.8 14.5 0.00 0.00 0.00 46 1013.5